Location: Albany
(35.0170°S, 117.8920°E)
Time: 19:41:15
(UTC+08:00)

A-11 Canister half - Pass Details

Date: 23 January 2021
Orbit: 1525 x 1684 km, 47.3° (Epoch: 03 March)

Event Time Altitude Azimuth Distance (km) Brightness Sun altitude
Rises 10:23:10 0° 238° (WSW) 4,823 11.3 59.8°
Reaches altitude 10° 10:26:26 10° 243° (WSW) 3,812 10.9 60.4°
Maximum altitude 10:35:32 49° 313° (NW) 1,937 10.2 62.1°
Drops below altitude 10° 10:44:22 10° 24° (NNE) 3,694 11.5 63.7°
Sets 10:47:30 0° 30° (NNE) 4,663 11.9 64.3°
